This is the latest recevied weather packets stored in our database for station/object DO7ZT-10. If no packets are shown the sender has not sent any weather packets the latest 10 day(s).
| Time | Temp. | Humidity | Pressure | Rain* | Wind** | Luminosity | Snow |
|---|---|---|---|---|---|---|---|
| 1787619682 | 13.89° C | 69% | 1019.6 hPa | - | - | - | - |
| 1787618782 | 13.89° C | 69% | 1019.7 hPa | - | - | - | - |
| 1787617882 | 13.89° C | 69% | 1019.9 hPa | - | - | - | - |
| 1787616982 | 13.89° C | 70% | 1020 hPa | - | - | - | - |
| 1787616082 | 13.89° C | 71% | 1020.1 hPa | - | - | - | - |
| 1787615182 | 13.33° C | 71% | 1020.3 hPa | - | - | - | - |
| 1787614281 | 13.89° C | 71% | 1020.6 hPa | - | - | - | - |
| 1787613381 | 13.89° C | 71% | 1020.6 hPa | - | - | - | - |
| 1787612481 | 13.89° C | 69% | 1020.9 hPa | - | - | - | - |
| 1787611581 | 14.44° C | 69% | 1021 hPa | - | - | - | - |
| 1787610681 | 14.44° C | 69% | 1021.3 hPa | - | - | - | - |
| 1787609781 | 14.44° C | 70% | 1021.5 hPa | - | - | - | - |
| 1787608881 | 14.44° C | 70% | 1021.5 hPa | - | - | - | - |
| 1787607981 | 13.89° C | 71% | 1021.6 hPa | - | - | - | - |
| 1787607081 | 13.89° C | 72% | 1021.5 hPa | - | - | - | - |
| 1787606181 | 13.89° C | 71% | 1021.5 hPa | - | - | - | - |
| 1787605281 | 13.89° C | 72% | 1021.6 hPa | - | - | - | - |
| 1787604381 | 13.89° C | 71% | 1021.7 hPa | - | - | - | - |
| 1787603481 | 12.22° C | 78% | 1021.6 hPa | - | - | - | - |
| 1787602581 | 12.78° C | 76% | 1021.8 hPa | - | - | - | - |
| 1787601680 | 12.78° C | 76% | 1021.8 hPa | - | - | - | - |
| 1787600780 | 12.78° C | 76% | 1021.7 hPa | - | - | - | - |
| 1787599880 | 12.78° C | 76% | 1021.8 hPa | - | - | - | - |
| 1787598980 | 13.33° C | 76% | 1021.8 hPa | - | - | - | - |
| 1787598080 | 13.33° C | 76% | 1021.8 hPa | - | - | - | - |
* Rain since midnight (hover to see other rain measurements)
** Current wind speed in m/s (hover to see current wind gust speed)